This is the latest recevied weather packets stored in our database for station/object DO1YM-13. If no packets are shown the sender has not sent any weather packets the latest 10 day(s).
| Time | Temp. | Humidity | Pressure | Rain* | Wind** | Luminosity | Snow |
|---|---|---|---|---|---|---|---|
| 1787591447 | 19.44° C | 59% | 1016.3 hPa | 0 mm | - | 18 W/m² | - |
| 1787591147 | 19.44° C | 60% | 1016.3 hPa | 0 mm | - | 20 W/m² | - |
| 1787590848 | 19.44° C | 55% | 1016.6 hPa | 0 mm | - | 21 W/m² | - |
| 1787590548 | 19.44° C | 56% | 1016.6 hPa | 0 mm | - | 23 W/m² | - |
| 1787590249 | 19.44° C | 56% | 1016.6 hPa | 0 mm | - | 24 W/m² | - |
| 1787589948 | 19.44° C | 55% | 1016.6 hPa | 0 mm | - | 26 W/m² | - |
| 1787589648 | 19.44° C | 56% | 1016.6 hPa | 0 mm | - | 27 W/m² | - |
| 1787589348 | 20° C | 55% | 1016.9 hPa | 0 mm | - | 27 W/m² | - |
| 1787589050 | 19.44° C | 54% | 1016.9 hPa | 0 mm | - | 28 W/m² | - |
| 1787588748 | 19.44° C | 56% | 1016.6 hPa | 0 mm | - | 29 W/m² | - |
| 1787588451 | 19.44° C | 56% | 1016.9 hPa | 0 mm | - | 30 W/m² | - |
| 1787588148 | 19.44° C | 56% | 1016.6 hPa | 0 mm | - | 32 W/m² | - |
| 1787587848 | 19.44° C | 57% | 1016.9 hPa | 0 mm | - | 32 W/m² | - |
| 1787587548 | 19.44° C | 56% | 1016.9 hPa | 0 mm | - | 32 W/m² | - |
| 1787587247 | 19.44° C | 56% | 1016.9 hPa | 0 mm | - | 33 W/m² | - |
| 1787586948 | 19.44° C | 58% | 1016.9 hPa | 0 mm | - | 25 W/m² | - |
| 1787586648 | 19.44° C | 57% | 1016.9 hPa | 0 mm | - | 24 W/m² | - |
| 1787586348 | 20° C | 56% | 1017.3 hPa | 0 mm | - | 26 W/m² | - |
| 1787586048 | 20° C | 55% | 1017.3 hPa | 0 mm | - | 24 W/m² | - |
| 1787585748 | 20.56° C | 55% | 1017.3 hPa | 0 mm | - | 30 W/m² | - |
| 1787585448 | 20.56° C | 56% | 1016.9 hPa | 0 mm | - | 39 W/m² | - |
| 1787585148 | 20.56° C | 54% | 1017.3 hPa | 0 mm | - | 44 W/m² | - |
| 1787584848 | 21.11° C | 53% | 1017.3 hPa | 0 mm | - | 58 W/m² | - |
| 1787584550 | 20.56° C | 54% | 1017.3 hPa | 0 mm | - | 69 W/m² | - |
| 1787584248 | 20.56° C | 56% | 1017.3 hPa | 0 mm | - | 66 W/m² | - |
* Rain latest hour (hover to see other rain measurements)
** Current wind speed in m/s (hover to see current wind gust speed)